This demonstration page uses our WeatherBlox Daily Observations layout. Learn more.

Left ArrowRight Arrow

40.92945, -100.16068

Hourly Observations for July 29, 2021

Temp ( °F °C ) Dew Point ( °F °C ) Humidity (%) Winds ( mph kmh ) Pressure ( in mb ) Visibility ( mi km ) Precip ( " mm )
12:15 am 00:15 Clear 83 28.1 66 19 58 58 S 10 17 29.88 1012 10 16 N/A
12:35 am 00:35 Clear 83 28.3 65 18.6 56 56 SSW 13 20 29.87 1012 10 16 N/A
12:55 am 00:55 Clear 82 28 65 18.6 57 57 SSW 13 20 29.89 1012 10 16 N/A
1:15 am 01:15 Partly Cloudy 82 28 66 18.7 57 57 S 12 19 29.89 1012 10 16 N/A
1:35 am 01:35 Clear 82 27.6 66 18.7 58 58 S 12 19 29.89 1012 10 16 N/A
1:55 am 01:55 Partly Cloudy 81 27 66 18.9 61 61 SSW 8 13 29.89 1012 10 16 N/A
2:15 am 02:15 Mostly Cloudy 80 26.8 66 19 62 62 SSW 7 11 29.89 1012 10 16 N/A
2:35 am 02:35 Mostly Cloudy 80 26.8 66 19 62 62 SSW 9 15 29.89 1012 10 16 N/A
2:55 am 02:55 Mostly Cloudy 80 26.5 66 19.1 64 64 S 8 13 29.90 1012 10 16 N/A
3:15 am 03:15 Mostly Cloudy 79 26.1 67 19.2 66 66 S 5 7 29.90 1013 10 16 N/A
3:35 am 03:35 Partly Cloudy 78 25.7 67 19.3 68 68 N N/A 29.90 1013 10 16 N/A
3:55 am 03:55 Partly Cloudy 76 24.6 67 19.4 73 73 N N/A 29.92 1013 10 16 N/A
4:15 am 04:15 Partly Cloudy 78 25.6 67 19.5 69 69 SSW 3 6 29.91 1013 10 16 N/A
4:35 am 04:35 Partly Cloudy 78 25.5 67 19.5 70 70 N N/A 29.92 1013 10 16 N/A
4:55 am 04:55 Partly Cloudy 76 24.2 67 19.5 75 75 N N/A 29.93 1013 10 16 N/A
5:15 am 05:15 Partly Cloudy 74 23.1 67 19.7 81 81 N N/A 29.94 1014 10 16 N/A
5:35 am 05:35 Clear 72 22.4 67 19.4 83 83 N N/A 29.95 1014 10 16 N/A
5:55 am 05:55 Clear 76 24.7 67 19.3 72 72 N N/A 29.93 1014 10 16 N/A
6:15 am 06:15 Clear 75 24 67 19.3 75 75 SSW 6 9 29.94 1014 10 16 N/A
6:35 am 06:35 Sunny 73 22.8 66 19.1 80 80 N N/A 29.95 1014 10 16 N/A
6:55 am 06:55 Sunny 72 22.3 67 19.2 83 83 N N/A 29.96 1015 10 16 N/A
7:15 am 07:15 Sunny 71 21.6 67 19.5 88 88 NNE 6 9 29.98 1015 10 16 N/A
7:35 am 07:35 Sunny 72 22.2 68 19.8 86 86 NNE 8 13 29.99 1016 10 16 N/A
7:55 am 07:55 Sunny 74 23.4 68 20.1 82 82 N 5 7 29.99 1016 10 16 N/A
8:15 am 08:15 Sunny 76 24.6 69 20.5 78 78 N N/A 29.98 1015 10 16 N/A
8:35 am 08:35 Sunny 78 25.8 70 20.9 74 74 E 3 6 29.97 1015 10 16 N/A
8:55 am 08:55 Sunny 82 27.5 68 20.2 64 64 N N/A 29.97 1015 10 16 N/A
9:15 am 09:15 Sunny 83 28.5 68 19.8 59 59 N N/A 29.96 1015 7 11 N/A
9:35 am 09:35 Partly Cloudy 85 29.5 68 19.9 56 56 N N/A 29.94 1014 10 16 N/A
9:55 am 09:55 Sunny 86 30.1 67 19.7 54 54 N N/A 29.94 1014 10 16 N/A
10:15 am 10:15 Sunny 87 30.4 68 19.8 53 53 NE 3 6 29.95 1014 10 16 N/A
10:35 am 10:35 Sunny 88 30.9 67 19.6 51 51 ENE 3 6 29.93 1014 10 16 N/A
10:55 am 10:55 Sunny 89 31.4 68 20 51 51 E 5 7 29.94 1014 10 16 N/A
11:15 am 11:15 Sunny 90 32 69 20.7 51 51 E 5 7 29.93 1014 10 16 N/A
11:35 am 11:35 Sunny 90 32.4 70 21.3 52 52 ESE 7 11 29.93 1014 10 16 N/A
11:55 am 11:55 Sunny 91 32.6 72 22 54 54 E 8 13 29.93 1013 10 16 N/A
12:15 pm 12:15 Sunny 92 33.1 72 22.3 53 53 NE 10 17 29.92 1013 10 16 N/A
12:35 pm 12:35 Sunny 92 33.3 71 21.9 51 51 NE 10 17 29.92 1013 10 16 N/A
12:55 pm 12:55 Sunny 92 33.5 72 22.1 51 51 E 7 11 29.92 1013 10 16 N/A
1:15 pm 13:15 Sunny 92 33.6 72 22.1 51 51 ENE 8 13 29.91 1013 10 16 N/A
1:35 pm 13:35 Sunny 94 34.2 73 22.5 50 50 E 8 13 29.91 1013 10 16 N/A
1:55 pm 13:55 Sunny 93 34.1 73 22.5 51 51 ESE 10 17 29.91 1013 10 16 N/A
2:15 pm 14:15 Sunny 94 34.5 72 22.1 48 48 ESE 9 15 29.90 1013 7 11 N/A
2:35 pm 14:35 Sunny 94 34.2 73 22.9 52 52 E 10 17 29.91 1013 10 16 N/A
2:55 pm 14:55 Sunny 94 34.3 73 22.8 51 51 ESE 9 15 29.90 1013 10 16 N/A
3:15 pm 15:15 Sunny 95 35 73 22.9 49 49 ESE 9 15 29.90 1012 10 16 N/A
3:35 pm 15:35 Sunny 95 34.8 72 22.3 48 48 ESE 8 13 29.90 1013 10 16 N/A
3:55 pm 15:55 Sunny 95 34.8 73 22.7 49 49 E 10 17 29.89 1012 10 16 N/A
4:15 pm 16:15 Sunny 94 34.7 74 23.2 51 51 E 7 11 29.89 1012 10 16 N/A
4:35 pm 16:35 Partly Cloudy with Thunderstorms 95 35 75 23.8 52 52 SE 10 17 29.88 1012 10 16 N/A
4:55 pm 16:55 Partly Cloudy 95 35 74 23.5 51 51 ESE 9 15 29.89 1012 10 16 N/A
5:15 pm 17:15 Partly Cloudy 92 33.2 74 23.6 57 57 E 9 15 29.89 1012 10 16 N/A
5:35 pm 17:35 Sunny 91 32.6 76 24.6 63 63 ENE 9 15 29.91 1013 10 16 N/A
5:55 pm 17:55 Partly Cloudy 85 29.2 72 22 65 65 NNE 5 7 29.94 1014 10 16 N/A
6:15 pm 18:15 Partly Cloudy 83 28.5 74 23.1 73 73 NE 5 7 29.94 1014 10 16 N/A
6:35 pm 18:35 Sunny 83 28.1 73 22.6 72 72 NE 13 20 29.93 1014 10 16 N/A
6:55 pm 18:55 Sunny 83 28.2 72 22.4 71 71 ENE 13 20 29.93 1014 10 16 N/A
7:15 pm 19:15 Sunny 83 28.3 72 22 69 69 ENE 13 20 29.92 1013 10 16 N/A
7:35 pm 19:35 Sunny 83 28.3 74 23.1 73 73 ENE 14 22 29.93 1014 7 11 N/A
7:55 pm 19:55 Sunny 83 28.5 75 23.8 76 76 ENE 12 19 29.93 1014 10 16 N/A
8:15 pm 20:15 Sunny 82 28 75 24 79 79 E 12 19 29.93 1014 7 11 N/A
8:35 pm 20:35 Sunny 82 27.5 74 23.6 79 79 E 13 20 29.95 1014 10 16 N/A
8:55 pm 20:55 Sunny 80 26.7 74 23.5 83 83 E 12 19 29.96 1014 10 16 N/A
9:15 pm 21:15 Clear 79 26.1 74 23.1 84 84 E 12 19 29.97 1015 10 16 N/A
9:35 pm 21:35 Mostly Cloudy 78 25.7 73 22.9 85 85 E 10 17 29.97 1015 10 16 N/A
9:55 pm 21:55 Mostly Cloudy 78 25.5 73 22.8 85 85 E 10 17 29.98 1015 10 16 N/A
10:15 pm 22:15 Mostly Cloudy 77 25.2 73 22.6 86 86 E 8 13 29.99 1015 10 16 N/A
10:35 pm 22:35 Cloudy 77 25.2 73 22.6 86 86 E 9 15 29.99 1015 10 16 N/A
10:55 pm 22:55 Cloudy 78 25.3 73 22.6 85 85 E 13 20 29.99 1015 10 16 N/A
11:15 pm 23:15 Cloudy 78 25.3 73 22.7 86 86 E 9 15 30.00 1016 10 16 N/A
11:35 pm 23:35 Cloudy 77 25.2 73 22.6 86 86 E 8 13 30.00 1016 10 16 N/A
11:55 pm 23:55 Cloudy 77 25.1 73 22.6 86 86 E 12 19 29.99 1016 10 16 N/A

Powered by AerisWeather